F6273 Weather Reports


time (UTC)temp
C
wind
direction
speed
KPH
gust
KPH
rain 1hr
cm
rain 24hr
cm
rain mn
cm
humidity
%
barometer
mb
20260507013524 11 231 1.6 6.4 0.00 0.00 0.00 71 1009.1
20260507013041 11 0 1.6 6.4 0.00 0.00 0.00 70 1009.2
20260507012525 11 0 0.0 6.4 0.00 0.00 0.00 69 1009.3
20260507012025 11 0 0.0 4.8 0.00 0.00 0.00 68 1009.2
20260507011540 11 0 0.0 4.8 0.00 0.00 0.00 68 1009.3
20260507011024 11 219 0.0 6.4 0.00 0.00 0.00 67 1009.3
20260507010528 11 219 3.2 6.4 0.00 0.00 0.00 67 1009.4
20260507010041 11 221 3.2 8.0 0.00 0.00 0.00 66 1009.4
20260507005525 11 221 1.6 8.0 0.00 0.00 0.00 65 1009.3
20260507005024 11 233 4.8 8.0 0.00 0.00 0.00 65 1009.4
20260507004538 11 225 3.2 6.4 0.00 0.00 0.00 65 1009.3
20260507004027 11 233 1.6 6.4 0.00 0.00 0.00 64 1009.4
20260507003526 11 233 1.6 6.4 0.00 0.00 0.00 63 1009.5
20260507003047 12 237 3.2 6.4 0.00 0.00 0.00 62 1009.4
20260507002528 12 240 3.2 6.4 0.00 0.00 0.00 61 1009.4
20260507002025 11 0 0.0 4.8 0.00 0.00 0.00 61 1009.4
20260507001603 12 0 1.6 8.0 0.00 0.00 0.00 61 1009.3
20260507001024 12 240 3.2 8.0 0.00 0.00 0.00 61 1009.5
20260507000524 12 240 4.8 8.0 0.00 0.00 0.00 60 1009.5
20260507000046 12 248 0.0 3.2 0.00 0.00 0.00 61 1009.5
20260506235528 12 0 0.0 0.0 0.00 0.00 0.00 60 1009.5
20260506235028 12 0 0.0 0.0 0.00 0.00 0.00 60 1009.5
20260506234549 12 0 0.0 0.0 0.00 0.00 0.00 60 1009.4
20260506234027 12 0 0.0 0.0 0.00 0.00 0.00 60 1009.5
20260506233524 12 0 0.0 0.0 0.00 0.00 0.00 60 1009.7
20260506233039 12 0 0.0 0.0 0.00 0.00 0.00 59 1009.7
20260506232526 12 0 0.0 0.0 0.00 0.00 0.00 59 1009.7
20260506232027 13 0 0.0 0.0 0.00 0.00 0.00 59 1009.7
20260506231539 13 0 0.0 0.0 0.00 0.00 0.00 59 1009.7
20260506231025 13 0 0.0 0.0 0.00 0.00 0.00 58 1009.6
20260506230528 13 0 0.0 3.2 0.00 0.00 0.00 58 1009.7
20260506230040 13 0 0.0 4.8 0.00 0.00 0.00 58 1009.5
20260506225531 13 248 0.0 6.4 0.00 0.00 0.00 58 1009.5
20260506225029 12 248 1.6 8.0 0.00 0.00 0.00 59 1009.5
20260506224557 12 247 3.2 8.0 0.00 0.00 0.00 60 1009.6
20260506224027 12 226 4.8 11.3 0.00 0.00 0.00 61 1009.6
20260506223527 12 217 6.4 11.3 0.00 0.00 0.00 60 1009.5
20260506223048 13 240 6.4 11.3 0.00 0.00 0.00 58 1009.6
20260506222528 14 279 0.0 3.2 0.00 0.00 0.00 56 1009.4
20260506222029 14 0 0.0 0.0 0.00 0.00 0.00 56 1009.4
20260506221546 14 0 0.0 0.0 0.00 0.00 0.00 55 1009.5
20260506221029 14 0 0.0 0.0 0.00 0.00 0.00 55 1009.3
20260506220528 14 0 0.0 0.0 0.00 0.00 0.00 55 1009.4
20260506220101 14 0 0.0 0.0 0.00 0.00 0.00 55 1009.4
20260506215527 15 0 0.0 0.0 0.00 0.00 0.00 55 1009.5
20260506215028 15 0 0.0 0.0 0.00 0.00 0.00 55 1009.4
20260506214539 15 0 0.0 0.0 0.00 0.00 0.00 53 1009.6
20260506214033 15 0 0.0 0.0 0.00 0.00 0.00 53 1009.4
20260506213528 15 0 0.0 0.0 0.00 0.00 0.00 53 1009.4
20260506213038 15 0 0.0 3.2 0.00 0.00 0.00 52 1009.4
20260506212529 15 0 0.0 3.2 0.00 0.00 0.00 52 1009.4
20260506212027 15 0 0.0 0.0 0.00 0.00 0.00 52 1009.4
20260506211552 16 0 0.0 0.0 0.00 0.00 0.00 52 1009.4
20260506211027 16 0 0.0 0.0 0.00 0.00 0.00 51 1009.4
20260506210527 16 0 0.0 0.0 0.00 0.00 0.00 50 1009.3
20260506210046 16 0 0.0 1.6 0.00 0.00 0.00 50 1009.3
20260506205527 16 0 0.0 3.2 0.00 0.00 0.00 49 1009.3
20260506205027 16 42 0.0 3.2 0.00 0.00 0.00 49 1009.3
20260506204542 16 0 0.0 0.0 0.00 0.00 0.00 49 1009.2
20260506204029 16 0 0.0 0.0 0.00 0.00 0.00 49 1009.2
20260506203528 16 0 0.0 0.0 0.00 0.00 0.00 49 1009.1
20260506203041 16 0 0.0 0.0 0.00 0.00 0.00 47 1009.0
20260506202528 16 0 0.0 0.0 0.00 0.00 0.00 47 1009.1
20260506202029 17 0 0.0 6.4 0.00 0.00 0.00 46 1009.0
20260506201548 17 0 0.0 6.4 0.00 0.00 0.00 46 1009.1
20260506201028 17 43 0.0 6.4 0.00 0.00 0.00 48 1009.0
20260506200531 17 0 0.0 0.0 0.00 0.00 0.00 47 1009.0
20260506200039 17 0 0.0 0.0 0.00 0.00 0.00 45 1008.9
20260506195531 18 0 0.0 0.0 0.00 0.00 0.00 44 1008.9
20260506195029 18 0 0.0 0.0 0.00 0.00 0.00 44 1008.8
20260506194544 18 0 0.0 0.0 0.00 0.00 0.00 44 1008.8
20260506194029 18 0 0.0 1.6 0.00 0.00 0.00 43 1008.9
20260506193528 18 0 0.0 1.6 0.00 0.00 0.00 44 1008.9
20260506193051 19 0 0.0 1.6 0.00 0.00 0.00 44 1008.9
20260506192527 20 202 0.0 1.6 0.00 0.00 0.00 43 1008.8
20260506192027 20 0 0.0 1.6 0.00 0.00 0.00 40 1008.8
20260506191539 20 0 0.0 1.6 0.00 0.00 0.00 40 1008.8
20260506191028 20 0 0.0 4.8 0.00 0.00 0.00 40 1008.9
20260506190529 21 322 1.6 4.8 0.00 0.00 0.00 38 1008.9
20260506190039 21 0 0.0 0.0 0.00 0.00 0.00 33 1008.8
20260506185527 21 0 0.0 0.0 0.00 0.00 0.00 33 1008.8
20260506185025 21 0 0.0 0.0 0.00 0.00 0.00 34 1008.8
20260506184547 21 0 0.0 0.0 0.00 0.00 0.00 35 1008.9
20260506184028 21 0 0.0 0.0 0.00 0.00 0.00 35 1008.8
20260506183531 21 0 0.0 1.6 0.00 0.00 0.00 35 1008.9
20260506183042 21 0 0.0 3.2 0.00 0.00 0.00 34 1008.9
20260506182528 20 0 0.0 3.2 0.00 0.00 0.00 38 1008.9
20260506182029 20 159 0.0 4.8 0.00 0.00 0.00 38 1008.9
20260506181554 20 0 0.0 4.8 0.00 0.00 0.00 39 1008.9
20260506181029 20 0 0.0 3.2 0.00 0.00 0.00 38 1008.9
20260506180529 20 0 0.0 3.2 0.00 0.00 0.00 38 1008.9
20260506180049 20 0 0.0 4.8 0.00 0.00 0.00 38 1008.9
20260506175530 20 0 0.0 4.8 0.00 0.00 0.00 39 1009.1
20260506175028 20 238 1.6 6.4 0.00 0.00 0.00 38 1009.0
20260506174546 20 315 1.6 8.0 0.00 0.00 0.00 37 1009.2
20260506174028 20 265 1.6 8.0 0.00 0.00 0.00 36 1009.3
20260506173529 21 146 4.8 8.0 0.00 0.00 0.00 35 1009.3
20260506173105 21 229 1.6 8.0 0.00 0.00 0.00 34 1009.3
20260506172529 21 138 1.6 9.7 0.00 0.00 0.00 34 1009.3
20260506172028 21 207 3.2 11.3 0.00 0.00 0.00 33 1009.3
20260506171546 21 198 4.8 11.3 0.00 0.00 0.00 34 1009.3
20260506171029 21 278 0.0 6.4 0.00 0.00 0.00 33 1009.3
20260506170529 21 291 0.0 9.7 0.00 0.00 0.00 33 1009.3
20260506170044 21 291 3.2 9.7 0.00 0.00 0.00 33 1009.4
20260506165528 21 278 3.2 12.9 0.00 0.00 0.00 34 1009.4
20260506165029 21 310 6.4 12.9 0.00 0.00 0.00 33 1009.5
20260506164539 21 281 4.8 17.7 0.00 0.00 0.00 34 1009.5
20260506164030 21 302 6.4 17.7 0.00 0.00 0.00 33 1009.5
20260506163527 21 278 6.4 14.5 0.00 0.00 0.00 33 1009.5
20260506163039 21 355 6.4 14.5 0.00 0.00 0.00 33 1009.6
20260506162528 21 36 1.6 12.9 0.00 0.00 0.00 33 1009.5
20260506162030 21 300 0.0 14.5 0.00 0.00 0.00 33 1009.6
20260506161539 21 0 6.4 14.5 0.00 0.00 0.00 33 1009.6
20260506161025 21 315 4.8 12.9 0.00 0.00 0.00 33 1009.6
20260506160529 21 343 6.4 14.5 0.00 0.00 0.00 33 1009.7
20260506160058 21 313 6.4 14.5 0.00 0.00 0.00 33 1009.7
20260506155524 21 288 6.4 12.9 0.00 0.00 0.00 33 1009.7
20260506155028 21 336 3.2 12.9 0.00 0.00 0.00 33 1009.7
20260506154544 21 305 6.4 14.5 0.00 0.00 0.00 32 1009.8
20260506154025 21 231 4.8 14.5 0.00 0.00 0.00 33 1009.7
20260506153528 21 242 1.6 14.5 0.00 0.00 0.00 33 1009.8
20260506153046 21 315 4.8 14.5 0.00 0.00 0.00 33 1009.8
20260506152524 21 293 9.7 14.5 0.00 0.00 0.00 33 1009.9
20260506152028 21 274 8.0 12.9 0.00 0.00 0.00 33 1009.9
20260506151539 21 0 4.8 12.9 0.00 0.00 0.00 34 1010.1
20260506151024 21 244 6.4 12.9 0.00 0.00 0.00 34 1010.1
20260506150524 20 0 3.2 11.3 0.00 0.00 0.00 34 1010.2
20260506150050 20 279 1.6 9.7 0.00 0.00 0.00 35 1010.2
20260506145525 20 314 6.4 16.1 0.00 0.00 0.00 34 1010.4
20260506145025 20 333 6.4 16.1 0.00 0.00 0.00 35 1010.5
20260506144545 21 329 3.2 14.5 0.00 0.00 0.00 36 1010.6
20260506144024 20 310 4.8 14.5 0.00 0.00 0.00 37 1010.7
20260506143525 20 273 1.6 14.5 0.00 0.00 0.00 37 1010.7
20260506143039 20 293 6.4 14.5 0.00 0.00 0.00 36 1010.8
20260506142526 20 331 8.0 14.5 0.00 0.00 0.00 38 1010.9
20260506142025 20 327 6.4 16.1 0.00 0.00 0.00 37 1010.8
20260506141540 21 83 0.0 16.1 0.00 0.00 0.00 37 1010.9
20260506141027 21 71 6.4 16.1 0.00 0.00 0.00 36 1011.0
20260506140525 21 282 1.6 11.3 0.00 0.00 0.00 34 1011.1
20260506140039 21 0 3.2 11.3 0.00 0.00 0.00 34 1011.1
20260506135525 21 189 1.6 14.5 0.00 0.00 0.00 34 1011.2
20260506135024 21 184 4.8 14.5 0.00 0.00 0.00 35 1011.3
20260506134538 21 171 4.8 11.3 0.00 0.00 0.00 36 1011.3
20260506134024 20 216 0.0 11.3 0.00 0.00 0.00 37 1011.4
20260506133529 20 147 4.8 9.7 0.00 0.00 0.00 37 1011.5
20260506133041 20 0 0.0 9.7 0.00 0.00 0.00 38 1011.5
20260506132525 19 250 1.6 11.3 0.00 0.00 0.00 39 1011.6
20260506132024 19 0 4.8 11.3 0.00 0.00 0.00 38 1011.7
20260506131555 18 38 0.0 8.0 0.00 0.00 0.00 40 1011.8
20260506131025 18 9 3.2 9.7 0.00 0.00 0.00 40 1011.8
20260506130527 18 0 4.8 14.5 0.00 0.00 0.00 40 1011.9
20260506130043 19 328 6.4 14.5 0.00 0.00 0.00 40 1011.9
20260506125527 19 350 4.8 14.5 0.00 0.00 0.00 40 1012.0
20260506125028 20 25 6.4 14.5 0.00 0.00 0.00 40 1012.0
20260506124538 20 20 8.0 14.5 0.00 0.00 0.00 41 1012.0
20260506124028 20 58 6.4 12.9 0.00 0.00 0.00 41 1012.0
20260506123531 19 202 0.0 4.8 0.00 0.00 0.00 40 1012.2
20260506123046 19 0 1.6 11.3 0.00 0.00 0.00 41 1012.3
20260506122531 19 0 3.2 11.3 0.00 0.00 0.00 40 1012.3
20260506122028 20 154 3.2 8.0 0.00 0.00 0.00 40 1012.5
20260506121543 20 149 0.0 4.8 0.00 0.00 0.00 40 1012.5
20260506121028 20 0 0.0 4.8 0.00 0.00 0.00 40 1012.6
20260506120532 19 0 0.0 8.0 0.00 0.00 0.00 43 1012.6
20260506120040 18 0 3.2 8.0 0.00 0.00 0.00 44 1012.7
20260506115529 18 78 3.2 6.4 0.00 0.00 0.00 43 1012.7
20260506115028 18 90 3.2 6.4 0.00 0.00 0.00 44 1012.7
20260506114539 18 17 1.6 11.3 0.00 0.00 0.00 45 1012.7
20260506114031 18 0 4.8 14.5 0.00 0.00 0.00 44 1012.8
20260506113527 18 27 6.4 14.5 0.00 0.00 0.00 44 1012.8
20260506113039 18 0 1.6 6.4 0.00 0.00 0.00 44 1013.0
20260506112529 18 0 1.6 12.9 0.00 0.00 0.00 44 1012.9
20260506112028 17 102 1.6 17.7 0.00 0.00 0.00 44 1012.9
20260506111538 17 81 6.4 17.7 0.00 0.00 0.00 45 1012.9
20260506111030 17 61 3.2 11.3 0.00 0.00 0.00 46 1013.1
20260506110532 18 23 3.2 12.9 0.00 0.00 0.00 45 1013.1
20260506110042 18 348 4.8 12.9 0.00 0.00 0.00 45 1013.1
20260506105527 18 5 4.8 14.5 0.00 0.00 0.00 45 1013.0
20260506105030 18 0 4.8 14.5 0.00 0.00 0.00 46 1013.1
20260506104546 17 92 4.8 12.9 0.00 0.00 0.00 47 1013.1
20260506104027 17 331 1.6 12.9 0.00 0.00 0.00 47 1013.1
20260506103524 17 52 4.8 12.9 0.00 0.00 0.00 48 1013.1
20260506103041 17 0 0.0 11.3 0.00 0.00 0.00 48 1013.1
20260506102528 17 80 3.2 11.3 0.00 0.00 0.00 49 1013.1
20260506102028 17 105 3.2 11.3 0.00 0.00 0.00 50 1013.2
20260506101539 17 114 3.2 12.9 0.00 0.00 0.00 49 1013.4
20260506101028 16 88 3.2 14.5 0.00 0.00 0.00 50 1013.4
20260506100529 16 81 4.8 14.5 0.00 0.00 0.00 51 1013.5
20260506100046 16 42 0.0 6.4 0.00 0.00 0.00 53 1013.4
20260506095528 16 0 0.0 9.7 0.00 0.00 0.00 54 1013.3
20260506095027 16 329 4.8 12.9 0.00 0.00 0.00 54 1013.4
20260506094554 16 26 3.2 12.9 0.00 0.00 0.00 55 1013.4
20260506094028 16 16 4.8 12.9 0.00 0.00 0.00 55 1013.4
20260506093527 16 0 0.0 6.4 0.00 0.00 0.00 56 1013.4
20260506093041 15 0 1.6 8.0 0.00 0.00 0.00 56 1013.3
20260506092528 15 0 3.2 11.3 0.00 0.00 0.00 57 1013.4
20260506092028 15 5 4.8 11.3 0.00 0.00 0.00 59 1013.4
20260506091540 15 296 0.0 12.9 0.00 0.00 0.00 59 1013.3
20260506091030 15 0 3.2 12.9 0.00 0.00 0.00 60 1013.3
20260506090527 15 355 3.2 12.9 0.00 0.00 0.00 61 1013.2
20260506090039 14 350 3.2 11.3 0.00 0.00 0.00 62 1013.3
20260506085527 14 286 4.8 11.3 0.00 0.00 0.00 61 1013.4
20260506085027 14 360 1.6 11.3 0.00 0.00 0.00 62 1013.3
20260506084542 13 0 1.6 11.3 0.00 0.00 0.00 63 1013.5
20260506084028 13 329 4.8 11.3 0.00 0.00 0.00 62 1013.5
20260506083527 13 0 3.2 11.3 0.00 0.00 0.00 62 1013.5
20260506083042 13 313 3.2 8.0 0.00 0.00 0.00 64 1013.5
20260506082530 13 314 3.2 8.0 0.00 0.00 0.00 66 1013.5
20260506082032 13 313 3.2 8.0 0.00 0.00 0.00 68 1013.5
20260506081540 13 337 3.2 8.0 0.00 0.00 0.00 70 1013.6
20260506081028 12 0 0.0 6.4 0.00 0.00 0.00 71 1013.6
20260506080528 12 0 0.0 6.4 0.00 0.00 0.00 72 1013.5
20260506073528 11 277 3.2 6.4 0.00 0.00 0.00 77 1013.6
20260506073046 11 277 1.6 6.4 0.00 0.00 0.00 77 1013.6
20260506072531 10 275 1.6 6.4 0.00 0.00 0.00 78 1013.6
20260506072029 10 0 3.2 6.4 0.00 0.00 0.00 79 1013.7
20260506071547 10 270 3.2 8.0 0.00 0.00 0.00 79 1013.6
20260506071027 10 238 3.2 8.0 0.00 0.00 0.00 80 1013.7
20260506070527 10 236 3.2 8.0 0.00 0.00 0.00 80 1013.6
20260506062028 8 218 3.2 6.4 0.00 0.00 0.00 82 1013.4
20260506061539 8 218 1.6 6.4 0.00 0.00 0.00 82 1013.3
20260506061031 8 360 1.6 6.4 0.00 0.00 0.00 82 1013.3
20260506060531 8 0 0.0 6.4 0.00 0.00 0.00 82 1013.3
20260506051026 8 237 4.8 11.3 0.00 0.00 0.00 79 1012.9
20260506050528 8 265 1.6 9.7 0.00 0.00 0.00 79 1012.9
20260506045028 8 0 0.0 4.8 0.00 0.00 0.00 78 1012.9
20260506044542 8 327 1.6 4.8 0.00 0.00 0.00 78 1012.8
20260506044026 8 16 0.0 3.2 0.00 0.00 0.00 78 1012.7
20260506043525 8 0 0.0 0.0 0.00 0.00 0.00 78 1012.8
20260506043047 8 0 0.0 0.0 0.00 0.00 0.00 77 1012.9
20260506042525 8 0 0.0 0.0 0.00 0.00 0.00 76 1012.9
20260506042025 9 0 0.0 0.0 0.00 0.00 0.00 75 1012.8
20260506041540 9 0 0.0 0.0 0.00 0.00 0.00 75 1012.9
20260506041027 10 0 0.0 0.0 0.00 0.00 0.00 75 1013.0
20260506040529 10 0 0.0 0.0 0.00 0.00 0.00 75 1012.9
20260506040041 10 0 0.0 1.6 0.00 0.00 0.00 75 1012.9
20260506035527 10 0 0.0 1.6 0.00 0.00 0.00 75 1012.9
20260506035027 10 0 0.0 4.8 0.00 0.00 0.00 75 1013.0
20260506034539 10 0 1.6 4.8 0.00 0.00 0.00 76 1013.1
20260506034026 10 0 0.0 0.0 0.00 0.00 0.00 75 1013.0
20260506033528 10 0 0.0 0.0 0.00 0.00 0.00 74 1013.0
20260506033043 10 0 0.0 4.8 0.00 0.00 0.00 75 1013.1
20260506032527 10 0 0.0 4.8 0.00 0.00 0.00 75 1013.2
20260506032031 10 0 0.0 3.2 0.00 0.00 0.00 75 1013.2
20260506031546 10 0 0.0 3.2 0.00 0.00 0.00 75 1013.2
20260506031028 10 0 0.0 0.0 0.00 0.00 0.00 75 1013.2
20260506030527 10 0 0.0 1.6 0.00 0.00 0.00 75 1013.2
20260506030040 10 0 0.0 1.6 0.00 0.00 0.00 75 1013.2
20260506025528 10 0 0.0 3.2 0.00 0.00 0.00 75 1013.2
20260506025030 10 0 0.0 4.8 0.00 0.00 0.00 75 1013.4
20260506024558 10 19 0.0 4.8 0.00 0.00 0.00 75 1013.4
20260506024027 10 0 1.6 4.8 0.00 0.00 0.00 76 1013.4
20260506023528 10 17 3.2 4.8 0.00 0.00 0.00 76 1013.4
20260506023044 10 0 0.0 3.2 0.00 0.00 0.00 76 1013.5
20260506022530 9 0 0.0 1.6 0.00 0.00 0.00 76 1013.5
20260506022028 10 0 0.0 1.6 0.00 0.00 0.00 76 1013.5
20260506021544 10 0 0.0 0.0 0.00 0.00 0.00 76 1013.6
20260506021026 10 0 0.0 1.6 0.00 0.00 0.00 75 1013.6
20260506020529 10 0 0.0 3.2 0.00 0.00 0.00 75 1013.6
20260506020039 10 0 0.0 3.2 0.00 0.00 0.00 75 1013.6
20260506015532 10 0 0.0 3.2 0.00 0.00 0.00 74 1013.6
20260506015028 10 0 0.0 3.2 0.00 0.00 0.00 74 1013.8
20260506014542 10 0 0.0 4.8 0.00 0.00 0.00 74 1013.8
20260506014027 10 0 1.6 4.8 0.00 0.00 0.00 75 1013.8